[Iaude] MPEC Y14: 2023 XO15 [a=1.02,e=0.10,i=5.3,H=25.8]

mpec at marsden.cfa.harvard.edu mpec at marsden.cfa.harvard.edu
Sat Dec 16 14:38:07 EST 2023


M.P.E.C. 2023-Y14                             Issued 2023 December 16, 19:36 UT

     The Minor Planet Electronic Circulars contain information on unusual
         minor planets, routine data on comets and natural satellites,
         and occasional editorial announcements.  They are published
    on behalf of Division F of the International Astronomical Union by the
          Minor Planet Center, Smithsonian Astrophysical Observatory,
                          Cambridge, MA 02138, U.S.A.
			  
             Prepared using the Tamkin Foundation Computer Network

                              MPC at CFA.HARVARD.EDU
            URL https://www.minorplanetcenter.net/    ISSN 1523-6714

                                   2023 XO15                                    


Observations:
     K23X15O*1C2023 12 15.27384005 26 33.608+22 02 36.28         19.80GVEY014G96
     K23X15O 1C2023 12 15.27899005 26 31.981+22 03 00.58         20.27GVEY014G96
     K23X15O 1C2023 12 15.28414105 26 30.361+22 03 24.88         19.96GVEY014G96
     K23X15O 1C2023 12 15.28930405 26 28.716+22 03 49.07         19.92GVEY014G96
     K23X15O  C2023 12 15.34083705 26 19.264+22 08 11.68         20.07wXEY014F52
     K23X15O  C2023 12 15.35113305 26 16.023+22 09 01.60         20.21wXEY014F52
     K23X15O  C2023 12 15.36149505 26 12.745+22 09 51.49         20.29wXEY014F52
     K23X15O mC2023 12 15.38420405 25 58.870+22 11 09.70               VEY014I52
     K23X15O mC2023 12 15.38449005 25 58.650+22 11 10.80               VEY014I52
     K23X15O mC2023 12 15.38996305 25 57.000+22 11 34.70               VEY014I52
     K23X15O KC2023 12 15.87847005 23 53.52 +22 49 43.7          20.2 GVEY014587
     K23X15O KC2023 12 15.87988005 23 53.04 +22 49 50.9                VEY014587
     K23X15O KC2023 12 15.88129105 23 52.67 +22 49 57.8                VEY014587
     K23X15O KB2023 12 15.88455 05 23 51.08 +22 50 15.8          19.5 RZEY014106
     K23X15O KB2023 12 15.89053 05 23 49.18 +22 50 44.1          20.0 RZEY014106
     K23X15O KB2023 12 15.89650 05 23 47.34 +22 51 13.9          19.4 RZEY014106
     K23X15O KB2023 12 15.90269 05 23 45.38 +22 51 43.9          19.7 RZEY014106
     K23X15O KC2023 12 15.98100405 23 20.43 +22 58 03.0          19.9 GVEY014L01
     K23X15O KC2023 12 15.98289705 23 19.79 +22 58 11.6          19.8 GVEY014L01
     K23X15O KC2023 12 15.98431 05 23 19.99 +22 58 18.4          20.2 GVEY014204
     K23X15O KC2023 12 15.98605405 23 18.82 +22 58 26.8          19.9 GVEY014L01
     K23X15O KC2023 12 15.99093305 23 17.86 +22 58 50.8          19.7 GVEY014203
     K23X15O KC2023 12 15.99331 05 23 17.13 +22 59 01.3                VEY014204
     K23X15O KC2023 12 16.00230 05 23 14.25 +22 59 44.0                VEY014204
     K23X15O KC2023 12 16.01857105 23 09.04 +23 01 02.4                VEY014203
     K23X15O KB2023 12 16.02854205 23 07.853+23 01 59.23         19.6 VZEY014Y89
     K23X15O KB2023 12 16.04332805 23 02.919+23 03 10.62         20.6 VZEY014Y89
     K23X15O KB2023 12 16.05811305 22 58.098+23 04 20.88         20.3 VZEY014Y89
     K23X15O KB2023 12 16.79076 05 19 39.12 +24 03 43.5          19.1 RZEY014106
     K23X15O KB2023 12 16.79341 05 19 38.28 +24 03 56.9          19.4 RZEY014106
     K23X15O KB2023 12 16.79620 05 19 37.43 +24 04 12.1          19.4 RZEY014106
     K23X15O KB2023 12 16.79899 05 19 36.50 +24 04 26.7          20.2 RZEY014106

Observer details:
106 Crni Vrh.  Observer H. Mikuz.  0.60-m f/3.3 reflector + CMO.
203 GiaGa Observatory.  Observers S. Foglia, G. Galli.  Measurer G. Galli.
    0.36-m f/5.76 Schmidt-Cassegrain + CCD.
204 Schiaparelli Observatory.  Observers L. Buzzi, G. Galli.  0.84-m f/3.5
    reflector + CCD.
587 Sormano.  Observers F. Manca, A. Testa.  Measurer F. Manca.  0.5-m f/6.8
    reflector + CCD.
F52 Pan-STARRS 2, Haleakala.  Observers J. Herman, T. Lowe, P. Minguez, A.
    Schultz, I. Smith.  Measurers K. Chambers, T. de Boer, J. Fairlamb, H.
    Gao, M. Huber, C.-C. Lin, E. Magnier, Y. Ramanjooloo, R. Wainscoat, R.
    Weryk.  1.8-m Ritchey-Chretien + CCD.
G96 Mt. Lemmon Survey.  Observer J. K. Hogan.  Measurers E. C. Beshore, D.
    Fay, J. B. Fazekas, D. C. Fuls, A. R. Gibbs, A. D. Grauer, H. Groeller, J.
    K. Hogan, R. A. Kowalski, S. M. Larson, G. J. Leonard, D. Rankin, R. L.
    Seaman, F. C. Shelly, K. W. Wierzchos.  1.5-m reflector + 10K CCD.
I52 Steward Observatory, Mt. Lemmon Station.  Observer K. W. Wierzchos.
    Measurers E. C. Beshore, D. Fay, J. B. Fazekas, D. C. Fuls, A. R. Gibbs,
    A. D. Grauer, H. Groeller, J. K. Hogan, R. A. Kowalski, S. M. Larson, G.
    J. Leonard, D. Rankin, R. L. Seaman, F. C. Shelly, K. W. Wierzchos.  1.0-m
    prime focus + CCD.
L01 Visnjan Observatory, Tican.  Observer K. Korlevic.  1.0-m f/2.9 reflector
    + CCD.
Y89 Proxima Centauri Observatory, Valdin.  Observer R. Hahn.  0.36-m f/2.0
    reflector + CMO.

Orbital elements:
2023 XO15                                                Earth MOID = 0.0257 AU
Epoch 2023 Sept. 13.0 TT = JDT 2460200.5                MPC                     
M 171.70766              (2000.0)            P               Q                  
n   0.95299129     Peri.  109.38042     -0.97091416     +0.22081503             
a   1.0226886      Node    83.46073     -0.23929548     -0.88208797             
e   0.0979132      Incl.    5.34549     -0.00796099     -0.41612684             
P   1.03           H   25.84          G   0.15           U   6                  
Residuals in seconds of arc
231215 G96  0.0   0.0     231215 587  0.4-  0.3-    231215 204  0.1+  0.3+
231215 G96  0.0   0.0     231215 587  0.5+  0.3-    231216 204  0.0   0.1+
231215 G96  0.1+  0.0     231215 106  0.0   0.4+    231216 203  0.2+  0.5+
231215 G96  0.1-  0.1-    231215 106  0.3-  0.6-    231216 Y89  1.8+  0.2-
231215 F52  0.3-  0.0     231215 106  0.3+  0.1+    231216 Y89  0.3-  0.5+
231215 F52  0.3-  0.0     231215 106  0.2+  0.1-    231216 Y89  1.0-  0.4+
231215 F52  0.1-  0.1-    231215 L01  0.1-  0.0     231216 106  0.2+  0.1-
231215 I52  1.0+  1.1+    231215 L01  0.6-  0.4-    231216 106  0.1+  0.4-
231215 I52  0.8-  0.9+    231215 204  0.1-  0.4+    231216 106  0.5+  0.4+
231215 I52  0.0   0.1-    231215 L01  0.0   0.3-    231216 106  0.1-  0.6+
231215 587  0.1+  0.5-    231215 203  0.2+  0.4+

Ephemeris:
2023 XO15                a,e,i = 1.02, 0.10, 5                   q = 0.9226
Date    TT    R. A. (2000) Decl.     Delta      r    Elong.  Phase     V
2023 11 16    06 13 40.8 +03 53 00   0.1339  1.0890   135.7    39.4    23.2
...
2023 12 01    06 05 31.6 +09 01 49   0.09277 1.0696   152.9    24.8    22.0
...
2023 12 09    05 48 58.4 +15 00 28   0.07487 1.0579   166.2    12.8    21.1
...
2023 12 15    05 27 43.7 +21 41 45   0.06430 1.0487   178.5     1.4    20.2
2023 12 16    05 23 16.7 +23 00 24   0.06284 1.0471   178.1     1.8    20.2
2023 12 17    05 18 32.4 +24 22 12   0.06147 1.0455   175.9     3.8    20.2
...
2023 12 23    04 43 28.8 +33 25 07   0.05527 1.0358   160.0    18.9    20.6
...
2023 12 31    03 36 36.8 +45 43 03   0.05262 1.0225   137.1    40.9    21.1
...
2024 01 15    00 52 16.6 +57 41 45   0.06070 0.9974   101.4    75.2    22.4

A. U. Tomatic                (C) Copyright 2023 MPC           M.P.E.C. 2023-Y14





More information about the Iaude mailing list